Location: *
(42.0175°N, 9.4056°E)
Time: 01:42:51
(UTC+00:00)

Cosmos 2082 Rocket - Pass Details

Date: 25 August 2019
Orbit: 831 x 855 km, 71.0° (Epoch: 17 October)

Event Time Altitude Azimuth Distance (km) Brightness Sun altitude
Rises 21:09:26 0° 229° (SW) 3,373 5.3 -28.9°
Reaches altitude 10° 21:12:05 10° 239° (WSW) 2,445 4.6 -29.2°
Maximum altitude 21:17:09 34° 303° (WNW) 1,352 3.7 -29.8°
Drops below altitude 10° 21:22:17 10° 8° (N) 2,473 5.1 -30.4°
Sets 21:24:59 0° 18° (NNE) 3,416 5.8 -30.7°
